Log Lane Village, CO

3:39 PM MDT on August 29, 2016 (GMT -0600)
Fort Morgan

Weather History for KFMM - May, 2013

Change the Weather History Date:

Monday, May 20, 2013

  Actual Average (KAKO) Record (KAKO)
Temperature  
Mean Temperature 56 °F 58 °F  
Max Temperature 64 °F 72 °F 94 °F (2005)
Min Temperature 46 °F 45 °F 31 °F (1946)
Degree Days  
Heating Degree Days 10    
Month to date heating degree days  
Cooling Degree Days 0    
Month to date cooling degree days  
Growing Degree Days 6 (Base 50)    
Moisture  
Dew Point 40 °F    
Average Humidity 62    
Maximum Humidity 92    
Minimum Humidity 36    
Precipitation  
Precipitation 0.00 in 0.10 in 1.62 in (1988)
Month to date precipitation 1.77  
Year to date precipitation 5.03  
Sea Level Pressure  
Sea Level Pressure 29.91 in    
Wind  
Wind Speed 18 mph (NW)    
Max Wind Speed 45 mph    
Max Gust Speed 51 mph    
Visibility 10 miles    
Events      
T = Trace of Precipitation, MM = Missing Value Source: NWS Daily Summary

Daily Weather History Graph

Daily Weather History Graph

Search for Another Location

Airport or City:

Trip Planner

Search our weather history database for the weather conditions in past years. The results will help you decide how hot, cold, wet, or windy it might be!

Date:

Astronomy

May. 20, 2013 Rise Set
Actual Time 5:34 AM MDT 8:09 PM MDT
Civil Twilight 5:03 AM MDT 8:40 PM MDT
Nautical Twilight 4:24 AM MDT 9:20 PM MDT
Astronomical Twilight 3:40 AM MDT 10:04 PM MDT
Moon 3:19 PM MDT (5/20) 2:31 AM MDT (5/20)
Length of Visible Light 15h 37m
Length of Day
14h 34m
Waxing Gibbous, 75% of the Moon is Illuminated
May 20
Waxing Gibbous
May 24
Full
May 31
Last Quarter
Jun 8
New
Jun 16
First Quarter

Hourly Weather History & Observations

Time (MDT) Temp. Windchill Dew Point Humidity Pressure Visibility Wind Dir Wind Speed Gust Speed Precip Events Conditions
12:15 AM 49.6 °F - 41.9 °F 75% 29.85 in 10.0 mi NW 8.1 mph - N/A   Mostly Cloudy
12:35 AM 50.5 °F - 42.1 °F 73% 29.85 in 10.0 mi NNW 5.8 mph - N/A   Mostly Cloudy
12:55 AM 50.9 °F - 43.2 °F 75% 29.85 in 10.0 mi NNW 9.2 mph - N/A   Overcast
1:15 AM 51.1 °F - 44.1 °F 77% 29.85 in 10.0 mi NNW 16.1 mph 20.7 mph N/A   Overcast
1:35 AM 49.8 °F - 44.1 °F 81% 29.84 in 10.0 mi NNW 25.3 mph 33.4 mph N/A   Overcast
2:15 AM 49.1 °F - 45.5 °F 87% 29.85 in 10.0 mi NNW 27.6 mph 41.4 mph N/A   Overcast
2:35 AM 48.0 °F - 44.4 °F 87% 29.86 in 7.0 mi NNW 34.5 mph 42.6 mph N/A   Overcast
2:55 AM 47.7 °F - 43.7 °F 86% 29.88 in 7.0 mi NW 18.4 mph 24.2 mph N/A   Overcast
3:35 AM 47.7 °F - 44.6 °F 89% 29.89 in 7.0 mi WNW 16.1 mph 23.0 mph N/A   Overcast
3:55 AM 47.7 °F - 44.8 °F 90% 29.89 in 7.0 mi WNW 12.7 mph - N/A   Overcast
4:15 AM 47.8 °F - 45.0 °F 90% 29.89 in 10.0 mi West 12.7 mph - N/A   Overcast
4:35 AM 47.8 °F - 44.8 °F 89% 29.89 in 10.0 mi West 10.4 mph - N/A   Overcast
4:55 AM 47.7 °F - 45.1 °F 91% 29.89 in 10.0 mi West 10.4 mph - N/A   Overcast
5:15 AM 47.5 °F - 45.1 °F 92% 29.89 in 10.0 mi West 8.1 mph - N/A   Overcast
5:35 AM 47.3 °F - 45.0 °F 92% 29.89 in 10.0 mi WSW 9.2 mph - N/A   Overcast
5:55 AM 47.3 °F - 45.0 °F 92% 29.89 in 10.0 mi West 8.1 mph - N/A   Overcast
6:15 AM 47.3 °F - 45.0 °F 92% 29.90 in 10.0 mi West 6.9 mph - N/A   Overcast
6:35 AM 47.7 °F - 45.5 °F 92% 29.90 in 10.0 mi WSW 6.9 mph - N/A   Overcast
6:55 AM 48.4 °F - 45.9 °F 91% 29.90 in 10.0 mi West 8.1 mph - N/A   Overcast
7:15 AM 49.3 °F - 46.0 °F 89% 29.91 in 10.0 mi West 8.1 mph - N/A   Overcast
7:35 AM 50.0 °F - 46.8 °F 89% 29.90 in 10.0 mi West 8.1 mph - N/A   Overcast
7:55 AM 51.1 °F - 47.3 °F 87% 29.91 in 10.0 mi West 6.9 mph - N/A   Overcast
8:15 AM 53.6 °F - 48.2 °F 82% 29.91 in 10.0 mi West 11.5 mph - N/A   Mostly Cloudy
8:35 AM 56.1 °F - 46.9 °F 71% 29.91 in 10.0 mi WNW 16.1 mph 20.7 mph N/A   Mostly Cloudy
8:55 AM 56.8 °F - 45.1 °F 65% 29.90 in 10.0 mi WNW 16.1 mph 23.0 mph N/A   Mostly Cloudy
9:35 AM 57.7 °F - 41.7 °F 55% 29.89 in 10.0 mi WNW 15.0 mph 21.9 mph N/A   Overcast
9:55 AM 57.6 °F - 41.0 °F 54% 29.89 in 10.0 mi NW 24.2 mph 28.8 mph N/A   Overcast
10:15 AM 59.4 °F - 40.8 °F 50% 29.88 in 10.0 mi NW 20.7 mph 27.6 mph N/A   Overcast
10:35 AM 57.9 °F - 39.9 °F 51% 29.88 in 10.0 mi NW 21.9 mph 29.9 mph N/A   Overcast
10:55 AM 60.4 °F - 40.1 °F 47% 29.88 in 10.0 mi NW 26.5 mph 33.4 mph N/A   Overcast
11:15 AM 62.8 °F - 39.6 °F 42% 29.89 in 10.0 mi NNW 28.8 mph 36.8 mph N/A   Mostly Cloudy
11:35 AM 60.4 °F - 40.5 °F 48% 29.89 in 10.0 mi NNW 28.8 mph 36.8 mph N/A   Mostly Cloudy
12:15 PM 63.0 °F - 36.7 °F 38% 29.89 in 10.0 mi NW 25.3 mph 34.5 mph N/A   Scattered Clouds
12:55 PM 63.3 °F - 38.1 °F 39% 29.89 in 10.0 mi NNW 29.9 mph 40.3 mph N/A   Mostly Cloudy
1:15 PM 64.6 °F - 36.7 °F 36% 29.88 in 10.0 mi NW 21.9 mph 38.0 mph N/A   Scattered Clouds
1:35 PM 63.9 °F - 37.2 °F 37% 29.89 in 10.0 mi NW 27.6 mph 34.5 mph N/A   Mostly Cloudy
1:55 PM 62.6 °F - 39.0 °F 42% 29.90 in 10.0 mi NNW 29.9 mph 44.9 mph N/A   Mostly Cloudy
2:15 PM 60.1 °F - 38.3 °F 44% 29.91 in 10.0 mi NNW 27.6 mph 40.3 mph N/A   Mostly Cloudy
2:35 PM 63.0 °F - 36.7 °F 38% 29.91 in 10.0 mi NNW 33.4 mph 42.6 mph N/A   Mostly Cloudy
2:55 PM 62.8 °F - 36.9 °F 38% 29.91 in 10.0 mi NNW 36.8 mph 46.0 mph N/A   Scattered Clouds
3:15 PM 60.3 °F - 34.7 °F 38% 29.91 in 10.0 mi NNW 36.8 mph 47.2 mph N/A   Mostly Cloudy
3:35 PM 60.8 °F - 35.4 °F 39% 29.92 in 10.0 mi NNW 44.9 mph 50.6 mph N/A   Scattered Clouds
3:55 PM 60.3 °F - 36.0 °F 40% 29.91 in 10.0 mi NNW 40.3 mph 47.2 mph N/A   Clear
4:15 PM 60.4 °F - 35.8 °F 40% 29.92 in 10.0 mi NNW 40.3 mph 46.0 mph N/A   Clear
4:35 PM 58.5 °F - 36.3 °F 44% 29.92 in 10.0 mi NNW 34.5 mph 48.3 mph N/A   Scattered Clouds
4:55 PM 56.8 °F - 35.8 °F 45% 29.92 in 10.0 mi NNW 39.1 mph 44.9 mph N/A   Scattered Clouds
5:15 PM 56.5 °F - 36.0 °F 46% 29.93 in 10.0 mi NNW 32.2 mph 43.7 mph N/A   Scattered Clouds
5:35 PM 55.9 °F - 35.2 °F 46% 29.94 in 10.0 mi NNW 31.1 mph 43.7 mph N/A   Clear
5:55 PM 55.9 °F - 35.4 °F 46% 29.94 in 10.0 mi NNW 32.2 mph 42.6 mph N/A   Scattered Clouds
6:15 PM 54.9 °F - 35.2 °F 48% 29.94 in 10.0 mi NNW 32.2 mph 42.6 mph N/A   Overcast
6:35 PM 54.5 °F - 34.7 °F 47% 29.94 in 10.0 mi NNW 32.2 mph 40.3 mph N/A   Mostly Cloudy
6:55 PM 54.5 °F - 34.3 °F 47% 29.95 in 10.0 mi NNW 29.9 mph 43.7 mph N/A   Mostly Cloudy
7:15 PM 54.1 °F - 34.9 °F 48% 29.96 in 10.0 mi NNW 29.9 mph 39.1 mph N/A   Scattered Clouds
7:35 PM 54.1 °F - 34.5 °F 48% 29.96 in 10.0 mi NNW 31.1 mph 38.0 mph N/A   Scattered Clouds
8:15 PM 51.6 °F - 34.0 °F 51% 29.97 in 10.0 mi NNW 24.2 mph 32.2 mph N/A   Scattered Clouds
8:35 PM 50.9 °F - 33.1 °F 51% 29.97 in 10.0 mi NNW 21.9 mph 31.1 mph N/A   Clear
8:55 PM 50.2 °F - 33.3 °F 52% 29.98 in 10.0 mi NNW 23.0 mph 31.1 mph N/A   Clear
9:15 PM 49.3 °F - 33.8 °F 55% 29.99 in 10.0 mi NNW 23.0 mph 31.1 mph N/A   Clear
9:35 PM 49.1 °F - 33.3 °F 54% 30.00 in 10.0 mi NNW 19.6 mph 27.6 mph N/A   Clear
9:55 PM 48.9 °F - 32.5 °F 53% 30.00 in 10.0 mi NNW 18.4 mph 26.5 mph N/A   Clear
10:15 PM 48.2 °F - 32.7 °F 55% 30.00 in 10.0 mi NNW 16.1 mph - N/A   Clear
10:35 PM 47.5 °F - 32.9 °F 57% 30.00 in 10.0 mi NW 13.8 mph - N/A   Clear
10:55 PM 47.3 °F - 33.1 °F 58% 30.00 in 10.0 mi NW 15.0 mph - N/A   Clear
11:35 PM 47.5 °F - 33.4 °F 58% 30.00 in 10.0 mi NNW 18.4 mph 25.3 mph N/A   Clear
11:55 PM 46.4 °F 39.8 °F 33.8 °F 62% 30.00 in 10.0 mi NNW 16.1 mph - N/A   Clear